Location: UBC Liquid-Mirror Observatory
(49.2876°N, 122.5728°W)
Time: 04:14:30
(UTC-08:00)

KITSAT 1 - Visible Passes

Search period start: 19 December 2014 00:00
Search period end: 29 December 2014 00:00
Orbit: 1314 x 1317 km, 66.1° (Epoch: 18 December)

Date Brightness Start Highest point End Pass type
(mag) Time Alt. Az. Time Alt. Az. Time Alt. Az.
19 Dec 12.1 02:43:13 20° NNE 02:43:13 20° NNE 02:45:26 10° NE visible
19 Dec 11.5 04:35:11 25° NNW 04:35:21 25° N 04:41:47 10° NE visible
19 Dec 11.5 06:27:10 11° NW 06:33:38 29° NNE 06:40:27 10° ENE visible
20 Dec 12.0 02:58:53 21° NNE 02:58:53 21° NNE 03:01:37 10° NE visible
20 Dec 11.5 04:50:51 23° NNW 04:52:11 24° N 04:58:29 10° NE visible
20 Dec 11.3 06:43:08 10° NW 06:50:19 33° NNE 06:57:29 10° E visible
21 Dec 11.9 03:14:32 22° NNE 03:14:32 22° NNE 03:17:53 10° NE visible
21 Dec 11.6 05:06:31 21° NNW 05:09:01 24° N 05:15:21 10° ENE visible
21 Dec 11.1 06:59:22 10° NW 07:06:54 40° NNE 07:14:24 10° ESE visible
22 Dec 12.7 01:38:13 10° NE 01:38:13 10° NE 01:38:19 10° NE visible
22 Dec 11.8 03:30:11 23° NNE 03:30:11 23° NNE 03:34:15 10° NE visible
22 Dec 11.6 05:22:10 19° NNW 05:25:51 26° NNE 05:32:21 10° ENE visible
22 Dec 10.9 07:15:32 10° NW 07:23:22 49° NE 07:31:10 10° ESE visible
23 Dec 12.6 01:53:52 12° NNE 01:53:52 12° NNE 01:54:28 10° NE visible
23 Dec 11.7 03:45:51 24° N 03:45:51 24° N 03:50:46 10° NE visible
23 Dec 11.5 05:37:49 17° NNW 05:42:37 28° NNE 05:49:24 10° ENE visible
24 Dec 12.4 02:09:31 14° NNE 02:09:31 14° NNE 02:10:38 10° NE visible
24 Dec 11.7 04:01:30 24° N 04:01:30 24° N 04:07:28 10° NE visible
24 Dec 11.4 05:53:28 15° NNW 05:59:18 33° NNE 06:06:26 10° E visible
25 Dec 12.3 02:25:11 16° NNE 02:25:11 16° NNE 02:26:53 10° NE visible
25 Dec 11.6 04:17:09 24° N 04:18:00 24° N 04:24:19 10° ENE visible
25 Dec 11.2 06:09:08 13° NNW 06:15:53 39° NNE 06:23:22 10° E visible
26 Dec 12.2 02:40:50 18° NNE 02:40:50 18° NNE 02:43:15 10° NE visible
26 Dec 11.6 04:32:49 23° N 04:34:49 25° NNE 04:41:18 10° ENE visible
26 Dec 10.9 06:24:47 11° NW 06:32:22 49° NE 06:40:08 10° ESE visible
27 Dec 12.1 02:56:30 20° NNE 02:56:30 20° NNE 02:59:45 10° NE visible
27 Dec 11.6 04:48:29 22° NNW 04:51:35 28° NNE 04:58:21 10° ENE visible
27 Dec 10.6 06:40:41 10° NW 06:48:43 62° NE 06:56:43 10° SE visible
28 Dec 11.9 03:12:11 22° NNE 03:12:11 22° NNE 03:16:26 10° NE visible
28 Dec 11.4 05:04:10 21° NNW 05:08:17 32° NNE 05:15:23 10° E visible
28 Dec 10.4 06:56:48 10° NW 07:04:57 80° NE 07:13:03 10° SE visible
